Elmira, NY

8:39 AM EDT on April 25, 2017 (GMT -0400)
Elmira-Corning Regional

Weather History for KELM - August, 2013

Change the Weather History Date:

Saturday, August 31, 2013

  Actual Average Record
Temperature  
Mean Temperature 77 °F -  
Max Temperature 89 °F 80 °F 99 °F (1953)
Min Temperature 66 °F 54 °F 38 °F (1934)
Cooling Degree Days 12    
Growing Degree Days 27 (Base 50)    
Moisture  
Dew Point 67 °F    
Average Humidity 75    
Maximum Humidity 94    
Minimum Humidity 51    
Precipitation  
Precipitation 1.07 in - - ()
Sea Level Pressure  
Sea Level Pressure 29.79 in    
Wind  
Wind Speed 4 mph (WNW)    
Max Wind Speed 10 mph    
Max Gust Speed -    
Visibility 8 miles    
Events Fog , Rain , Thunderstorm    
Averages and records for this station are not official NWS values.
T = Trace of Precipitation, MM = Missing Value Source: NWS Daily Summary

Daily Weather History Graph

Daily Weather History Graph

Search for Another Location

Airport or City:

Trip Planner

Search our weather history database for the weather conditions in past years. The results will help you decide how hot, cold, wet, or windy it might be!

Date:

Astronomy

Aug. 31, 2013 Rise Set
Actual Time 6:32 AM EDT 7:42 PM EDT
Civil Twilight 6:03 AM EDT 8:11 PM EDT
Nautical Twilight 5:28 AM EDT 8:45 PM EDT
Astronomical Twilight 4:52 AM EDT 9:21 PM EDT
Moon 1:56 AM EDT (8/31) 4:42 PM EDT (8/31)
Length of Visible Light 14h 08m
Length of Day
13h 10m
Waning Crescent, 21% of the Moon is Illuminated
Aug 31
Waning Crescent
Sep 5
New
Sep 12
First Quarter
Sep 19
Full
Sep 26
Last Quarter

Hourly Weather History & Observations

Time (EDT) Temp. Heat Index Dew Point Humidity Pressure Visibility Wind Dir Wind Speed Gust Speed Precip Events Conditions
12:53 AM 70.0 °F - 64.9 °F 84% 29.80 in 10.0 mi Calm Calm - N/A   Clear
1:53 AM 66.9 °F - 64.0 °F 90% 29.78 in 8.0 mi Calm Calm - N/A   Clear
2:53 AM 68.0 °F - 64.9 °F 90% 29.77 in 7.0 mi East 4.6 mph - N/A   Clear
3:53 AM 70.0 °F - 64.9 °F 84% 29.77 in 10.0 mi NE 5.8 mph - N/A   Partly Cloudy
4:53 AM 69.1 °F - 64.9 °F 87% 29.78 in 8.0 mi West 3.5 mph - N/A   Mostly Cloudy
5:53 AM 68.0 °F - 64.9 °F 90% 29.77 in 6.0 mi Calm Calm - 0.00 in   Mostly Cloudy
6:53 AM 69.1 °F - 66.0 °F 90% 29.77 in 6.0 mi Calm Calm - N/A   Clear
7:53 AM 72.0 °F - 68.0 °F 87% 29.78 in 6.0 mi Calm Calm - N/A   Clear
8:53 AM 75.0 °F - 66.9 °F 76% 29.78 in 8.0 mi WSW 6.9 mph - N/A   Scattered Clouds
9:53 AM 78.1 °F - 68.0 °F 71% 29.78 in 9.0 mi West 3.5 mph - N/A   Clear
10:53 AM 81.0 °F 83.8 °F 68.0 °F 65% 29.78 in 9.0 mi Variable 6.9 mph - N/A   Partly Cloudy
11:53 AM 82.9 °F 85.8 °F 68.0 °F 60% 29.77 in 10.0 mi WSW 6.9 mph - N/A   Mostly Cloudy
12:53 PM 82.9 °F 86.5 °F 69.1 °F 63% 29.77 in 9.0 mi NW 5.8 mph - N/A   Overcast
1:19 PM 80.6 °F 83.9 °F 69.8 °F 70% 29.79 in 9.0 mi NNW 5.8 mph - 0.00 in Rain , Thunderstorm Light Rain
1:40 PM 82.4 °F 86.3 °F 69.8 °F 66% 29.78 in 8.0 mi NW 3.5 mph - 0.00 in Thunderstorm Scattered Clouds
1:53 PM 84.9 °F 89.4 °F 70.0 °F 61% 29.75 in 9.0 mi Calm Calm - 0.00 in Thunderstorm Mostly Cloudy
2:12 PM 87.8 °F 92.6 °F 69.8 °F 55% 29.77 in 10.0 mi NW 8.1 mph - N/A   Mostly Cloudy
2:53 PM 86.0 °F 89.4 °F 68.0 °F 55% 29.73 in 10.0 mi WNW 9.2 mph - N/A   Scattered Clouds
3:53 PM 88.0 °F 91.4 °F 68.0 °F 51% 29.72 in 10.0 mi NNW 5.8 mph - N/A   Clear
4:53 PM 87.1 °F 90.6 °F 68.0 °F 53% 29.73 in 10.0 mi NNW 9.2 mph - N/A   Clear
5:45 PM 86.0 °F 88.2 °F 66.2 °F 51% 29.77 in 10.0 mi North 6.9 mph - N/A Thunderstorm Clear
5:53 PM 86.0 °F 88.8 °F 66.9 °F 53% 29.75 in 10.0 mi NW 8.1 mph - N/A Thunderstorm Clear
6:07 PM 86.0 °F 89.4 °F 68.0 °F 55% 29.77 in 10.0 mi North 9.2 mph - N/A   Scattered Clouds
6:14 PM 86.0 °F 89.4 °F 68.0 °F 55% 29.77 in 10.0 mi North 8.1 mph - N/A Thunderstorm Mostly Cloudy
6:53 PM 82.0 °F 84.9 °F 68.0 °F 62% 29.77 in 10.0 mi East 8.1 mph - N/A Thunderstorm Overcast
7:06 PM 80.6 °F 82.7 °F 66.2 °F 61% 29.79 in 10.0 mi South 4.6 mph - N/A Thunderstorm Overcast
7:53 PM 73.9 °F - 66.0 °F 76% 29.80 in 8.0 mi West 8.1 mph - 0.01 in Rain , Thunderstorm Light Thunderstorms and Rain
7:57 PM 73.4 °F - 66.2 °F 78% 29.82 in 2.0 mi SW 4.6 mph - 0.15 in Rain , Thunderstorm Thunderstorms and Rain
8:01 PM 71.6 °F - 68.0 °F 88% 29.82 in 0.8 mi SSW 10.4 mph - 0.46 in Rain , Thunderstorm Heavy Thunderstorms and Rain
8:06 PM 71.6 °F - 69.8 °F 94% 29.82 in 0.5 mi South 9.2 mph - 0.85 in Fog , Rain Heavy Rain
8:12 PM 73.4 °F - 69.8 °F 88% 29.82 in 0.8 mi Variable 4.6 mph - 0.97 in Rain Heavy Rain
8:20 PM 71.6 °F - 68.0 °F 88% 29.82 in 2.0 mi West 9.2 mph - 1.03 in Rain Heavy Rain
8:31 PM 71.6 °F - 68.0 °F 88% 29.84 in 8.0 mi West 4.6 mph - 1.03 in Rain Light Rain
8:38 PM 71.6 °F - 68.0 °F 88% 29.85 in 5.0 mi WSW 9.2 mph - 1.05 in Rain Rain
8:53 PM 71.1 °F - 68.0 °F 90% 29.83 in 7.0 mi SSW 4.6 mph - 1.06 in Rain Light Rain
9:53 PM 70.0 °F - 66.9 °F 90% 29.86 in 8.0 mi NW 3.5 mph - 0.00 in   Partly Cloudy
10:53 PM 68.0 °F - 66.0 °F 93% 29.83 in 7.0 mi ENE 3.5 mph - N/A   Partly Cloudy
11:34 PM 68.0 °F - 66.2 °F 94% 29.85 in 6.0 mi NE 4.6 mph - N/A   Partly Cloudy
11:53 PM 69.1 °F - 66.9 °F 93% 29.82 in 5.0 mi Calm Calm - N/A   Partly Cloudy